Home > Weather > Warstein > Past weeks

Flag for Germany Past Weather in Warstein, North Rhine-Westphalia, Germany — Yesterday and Last 2 Weeks

Now
63 °F

Passing clouds.


Feels Like: 63 °F
Forecast: 52 / 64 °F
Wind: 10 mph from Southwest

Location: Paderborn / Lippstadt

Current Time: Jul 1, 2016 at 2:52:57 AM

Latest Report: Jul 1, 2016 at 2:20 AM


Visibility: N/A

Pressure: 29.95 "Hg

Humidity: 83%

Dew Point: 57 °F

Location of WarsteinLocation

Past Weather in Warstein — Graph

°F

Warstein Temperature Yesterday

Maximum temperature yesterday: 68 °F (at 3:50 PM)
Minimum temperature yesterday: 59 °F (at 12:20 AM)
Average temperature yesterday: 64 °F

High & Low Weather Summary for the Past Weeks

 TemperatureHumidityPressure
High90 °F (Jun 23, 2:50 PM)100% (Jun 19, 8:50 AM)30.24 "Hg (Jun 19, 8:50 AM)
Low48 °F (Jun 20, 12:50 AM)38% (Jun 23, 2:20 PM)29.59 "Hg (Jun 16, 1:20 AM)
Average63 °F75%30.00 "Hg
* Reported Jun 16 1:20 AM — Jul 1 1:20 AM, Warstein, Weather by CustomWeather, © 2016

Note: Actual official high and low records may vary slightly from our data, if they occured in-between our weather recording intervals... More about our weather records

Advertising

Warstein Weather History for the Previous 24 Hours

Scroll right to see more
 ConditionsComfort  
Time TempWeatherWind HumidityBarometerVisibility
1:20 AM
Fri, Jul 1
61 °FLight rain. Passing clouds.9 mph94%29.95 "HgN/A
12:50 AM64 °FPassing clouds.9 mph78%29.95 "HgN/A
12:20 AM64 °FPassing clouds.8 mph73%29.95 "HgN/A
11:50 PM
Thu, Jun 30
64 °FClear.8 mph73%29.95 "Hg10 mi
11:20 PM66 °FClear.10 mph68%29.95 "Hg10 mi
10:50 PM66 °FClear.9 mph68%29.95 "Hg10 mi
10:20 PM66 °FScattered clouds.8 mph68%29.95 "HgN/A
9:50 PM66 °FScattered clouds.6 mph68%29.92 "HgN/A
9:20 PM66 °FPassing clouds.7 mph68%29.92 "HgN/A
8:50 PM68 °FPassing clouds.9 mph64%29.92 "HgN/A
8:20 PM68 °FSunny.5 mph64%29.92 "Hg10 mi
7:50 PM68 °FBroken clouds.7 mph64%29.92 "HgN/A
7:20 PM68 °FBroken clouds.8 mph69%29.92 "HgN/A
6:50 PM68 °FBroken clouds.10 mph64%29.92 "HgN/A
6:20 PM66 °FBroken clouds.9 mph68%29.92 "HgN/A
5:50 PM66 °FBroken clouds.6 mph68%29.92 "HgN/A
5:20 PM68 °FBroken clouds.7 mph64%29.92 "HgN/A
4:50 PM66 °FBroken clouds.8 mph68%29.92 "HgN/A
4:20 PM66 °FBroken clouds.10 mph64%29.92 "HgN/A
3:50 PM68 °FBroken clouds.9 mph64%29.92 "HgN/A
3:20 PM66 °FScattered clouds.10 mph68%29.92 "HgN/A
2:50 PM66 °FScattered clouds.12 mph64%29.92 "HgN/A
2:20 PM64 °FScattered clouds.10 mph68%29.92 "HgN/A
1:50 PM66 °FScattered clouds.13 mph64%29.92 "HgN/A
1:20 PM66 °FScattered clouds.13 mph64%29.92 "HgN/A
12:50 PM66 °FScattered clouds.13 mph64%29.92 "HgN/A
12:20 PM66 °FScattered clouds.13 mph64%29.92 "HgN/A
11:50 AM64 °FScattered clouds.13 mph68%29.92 "HgN/A
11:20 AM64 °FScattered clouds.14 mph68%29.92 "HgN/A
10:50 AM64 °FScattered clouds.16 mph73%29.92 "HgN/A
10:20 AM63 °FScattered clouds.13 mph73%29.92 "HgN/A
9:50 AM61 °FScattered clouds.12 mph83%29.92 "HgN/A
9:20 AM61 °FBroken clouds.10 mph77%29.92 "HgN/A
8:50 AM61 °FBroken clouds.9 mph77%29.89 "HgN/A
8:20 AM59 °FBroken clouds.9 mph82%29.89 "HgN/A
7:50 AM59 °FLight rain. Partly sunny.8 mph82%29.89 "HgN/A
7:20 AM59 °FBroken clouds.10 mph82%29.89 "HgN/A
6:50 AM59 °FLight rain. Broken clouds.9 mph82%29.89 "HgN/A
6:20 AM59 °FLight rain. Broken clouds.10 mph82%29.89 "HgN/A
5:50 AM59 °FLight rain. Partly cloudy.10 mph82%29.89 "HgN/A
5:20 AM59 °FLight rain. Clear.7 mph77%29.86 "HgN/A
4:50 AM61 °FClear.5 mph68%29.86 "Hg10 mi
4:20 AM61 °FClear.5 mph68%29.89 "Hg10 mi
3:50 AM61 °FClear.5 mph72%29.89 "Hg10 mi
Weather by CustomWeather, © 2016

See weather overviewHow to use our weather pages